Theta_e
291 292 292 290 289 288 287 287 286 285 285 284 284 284 284 283 283 283 282 282 279 279
291 291 289 289 289 288 287 285 285 284 283 283 283 282 282 280 279 280 280 279 279 279
290 289 287 287 286 286 285 285 284 282 281 280 280 280 279 277 276 279 278 279 280 280
287 286 286 286 285 284 282 283 282 281 279 278 277 277 277 278 279 280 280 281 280 281
285 285 285 284 283 283 282 281 281 280 279 278 278 278 279 278 278 278 278 278 279 280
283 283 282 281 281 281 281 281 281 280 280 280 279 278 278 278 278 277 278 278 278 279
281 281 280 280 280 281 281 280 280 280 280 280 280 280 279 279 278 278 279 280 281 282
280 280 280 280 280 280 279 280 279 279 279 280 280 280 280 280 279 279 279 280 281 281
278 279 278 278 277 278 278 278 278 278 279 279 280 283 284 282 280 280 279 279 280 281
276 277 277 277 277 277 276 276 277 276 277 277 277 283 284 284 281 280 279 280 281 281
276 276 276 276 276 275 276 276 275 275 276 277 278 282 283 284 282 281 281 281 281 281
276 275 275 275 274 274 275 275 275 276 276 276 277 281 282 282 281 281 281 282 281 281
275 275 274 275 274 275 275 275 276 277 277 277 277 280 282 283 281 280 280 281 281 282
274 274 274 274 274 274 273 274 272 273 274 274 276 276 281 282 281 280 280 280 280 280
Wind_Speed
15 11 11 14 11 10 10 9 10 8 7 7 7 6 5 3 3 5 4 5 2 2
14 13 12 11 10 10 9 8 11 10 9 7 6 6 6 4 4 4 4 4 4 2
13 11 10 10 10 10 8 10 11 9 8 7 6 6 6 4 3 5 3 3 5 3
10 10 9 9 9 9 8 9 9 9 8 7 7 6 5 5 6 6 5 3 5 5
11 11 10 8 8 9 9 6 8 9 8 7 6 6 6 6 5 6 6 5 4 5
10 11 10 10 9 8 9 8 7 7 8 8 7 7 5 5 5 5 5 6 6 6
9 10 9 9 9 9 8 9 8 7 7 7 7 6 6 6 6 6 6 7 7 7
9 9 9 9 8 8 7 7 6 6 5 6 6 5 6 6 6 7 6 7 7 7
8 8 7 7 6 6 6 7 7 6 7 7 5 11 14 10 6 6 7 7 7 7
5 6 6 7 6 6 6 6 6 6 6 5 5 13 13 14 7 7 6 7 7 6
5 6 5 5 5 4 4 5 5 5 6 5 5 13 14 15 7 6 8 8 8 7
4 6 6 4 4 3 3 4 4 4 5 6 6 13 14 12 5 6 6 7 8 8
4 4 4 5 5 3 3 3 3 5 5 6 5 10 12 11 5 7 5 6 7 13
3 4 3 3 3 3 3 3 3 3 1 3 4 4 10 11 4 4 4 5 5 5
Wind_Direction
173 175 174 173 169 174 176 176 165 163 160 158 159 158 159 160 163 165 168 174 168 179
175 171 170 162 161 167 164 156 160 161 159 156 155 156 154 158 167 158 161 171 172 162
170 160 148 147 155 156 149 150 154 155 152 152 152 152 153 153 164 161 172 168 169 174
148 139 139 147 147 146 136 145 149 153 148 153 154 157 157 164 166 174 177 168 172 184
134 133 133 131 128 133 135 129 142 142 144 148 152 152 160 164 167 172 182 187 177 199
130 129 127 123 117 114 121 118 119 131 144 156 163 165 167 171 183 189 193 194 199 202
120 121 121 121 125 127 131 133 137 147 150 156 162 172 171 181 191 194 196 201 206 205
105 105 112 120 124 128 133 133 132 138 149 160 170 175 181 185 193 200 203 208 211 212
108 111 109 108 116 127 132 134 142 157 169 175 183 199 210 196 198 198 205 214 219 215
85 103 111 122 139 147 149 134 153 159 163 180 175 210 220 225 193 201 202 212 217 220
111 114 112 124 142 134 130 148 156 170 175 176 193 221 231 230 225 202 204 207 209 217
125 132 124 134 132 111 138 163 163 175 182 198 211 225 232 232 223 223 215 204 208 210
117 121 139 143 141 131 158 154 168 180 186 193 203 221 226 225 209 222 216 210 214 216
109 101 107 116 120 138 155 129 126 140 149 199 205 227 239 242 209 205 204 207 206 207